Home   Weather   Macau   Past weeks

Flag for Macau Past Weather in Macau, Macau — Yesterday and Last 2 Weeks

Now
64 °F

Clear.


Feels Like: 64 °F
Forecast: 65 / 72 °F
Wind: 12 mph from North

Location: Taipa

Current Time: Dec 9, 2016 at 8:20:20 am

Latest Report: Dec 9, 2016 at 8:00 am


Visibility: 4 mi

Pressure: 30.01 "Hg

Humidity: 64%

Dew Point: 52 °F

Location of MacauLocation

Past Weather in Macau — Graph

°F

Macau Temperature Yesterday

Maximum temperature yesterday: 70 °F (at 1:30 pm)
Minimum temperature yesterday: 63 °F (at 7:00 am)
Average temperature yesterday: 67 °F

High & Low Weather Summary for the Past Weeks

 TemperatureHumidityPressure
High75 °F (Dec 4, 1:30 pm)94% (Nov 26, 8:00 pm)30.24 "Hg (Nov 26, 8:00 pm)
Low55 °F (Nov 26, 5:00 pm)46% (Dec 8, 1:30 pm)29.95 "Hg (Nov 25, 2:00 pm)
Average66 °F72%30.09 "Hg
* Reported Nov 24 7:00 am — Dec 9 7:00 am, Macau, Weather by CustomWeather, © 2016

Note: Actual official high and low records may vary slightly from our data, if they occured in-between our weather recording intervals... More about our weather records

Advertising

Macau Weather History for the Previous 24 Hours

Scroll right to see more
 ConditionsComfort  
Time TempWeatherWind HumidityBarometerVisibility
7:00 am
Fri, Dec 9
63 °FClear.13 mph68%29.98 "Hg4 mi
6:30 am63 °FClear.12 mph68%29.98 "Hg4 mi
6:00 am63 °FClear.12 mph68%29.98 "Hg5 mi
5:30 am64 °FClear.13 mph64%29.98 "Hg5 mi
5:00 am64 °FClear.13 mph64%29.95 "Hg4 mi
4:30 am64 °FClear.13 mph64%29.95 "Hg5 mi
4:00 am64 °FClear.13 mph68%29.95 "Hg5 mi
3:30 am66 °FClear.13 mph56%29.98 "Hg5 mi
3:00 am66 °FClear.13 mph56%29.98 "Hg6 mi
2:30 am66 °FClear.12 mph56%29.98 "Hg5 mi
2:00 am66 °FClear.10 mph60%29.98 "Hg5 mi
1:30 am66 °FClear.10 mph64%29.98 "Hg4 mi
1:00 am66 °FClear.9 mph64%29.98 "Hg4 mi
12:00 am66 °FClear.10 mph64%30.01 "Hg4 mi
11:30 pm
Thu, Dec 8
66 °FClear.10 mph64%30.01 "Hg5 mi
11:00 pm66 °FClear.10 mph64%30.01 "Hg5 mi
10:30 pm68 °FClear.10 mph60%30.01 "Hg6 mi
10:00 pm68 °FClear.10 mph56%30.01 "Hg6 mi
9:00 pm63 °FClear.9 mph59%30.01 "Hg6 mi
8:30 pm63 °FClear.8 mph59%29.98 "Hg6 mi
8:00 pm66 °FClear.5 mph60%29.98 "Hg6 mi
7:30 pm68 °FClear.5 mph53%29.98 "Hg6 mi
7:00 pm68 °FClear.5 mph56%29.98 "Hg6 mi
6:30 pm68 °FClear.5 mph56%29.95 "Hg5 mi
6:00 pm68 °FClear.6 mph53%29.95 "Hg5 mi
5:30 pm68 °FClear.6 mph53%29.95 "Hg5 mi
5:00 pm70 °FClear.6 mph50%29.95 "Hg5 mi
4:30 pm70 °FClear.7 mph50%29.95 "Hg5 mi
4:00 pm70 °FClear.7 mph53%29.95 "Hg4 mi
3:30 pm70 °FClear.8 mph46%29.95 "Hg4 mi
3:00 pm70 °FClear.9 mph50%29.95 "Hg4 mi
2:30 pm70 °FClear.10 mph50%29.95 "Hg4 mi
2:00 pm70 °FClear.12 mph46%29.95 "Hg4 mi
1:30 pm70 °FClear.12 mph46%29.95 "Hg4 mi
1:00 pm68 °FClear.14 mph53%29.98 "Hg4 mi
12:30 pm68 °FClear.13 mph49%29.98 "Hg4 mi
12:00 pm68 °FClear.15 mph49%30.01 "Hg6 mi
11:30 am68 °FClear.14 mph49%30.04 "Hg5 mi
10:30 am66 °FClear.16 mph56%30.04 "Hg5 mi
10:00 am66 °FClear.16 mph52%30.07 "Hg5 mi
9:30 am64 °FClear.17 mph60%30.07 "Hg5 mi
9:00 am64 °FClear.14 mph64%30.07 "Hg5 mi
8:30 am64 °FClear.15 mph60%30.07 "Hg5 mi
8:00 am63 °FClear.16 mph64%30.04 "Hg5 mi
Weather by CustomWeather, © 2016

See weather overviewHow to use our weather pages